Weather Roundup
Issued by NWS

Home | Current Version | Previous Version | Graphics & Text | Print | Product List | Glossary Off
Versions: 1 2 3 4 5 6 7 8 9 10 11 12 13 14 15 16 17 18 19 20 21 22 23 24 25 26 27 28 29 30 31 32 33 34 35 36 37 38 39 40 41 42 43 44 45 46 47 48 49 50

000
NZUS93 KARX 021310
HRRWXR

CURRENT HOURLY OBSERVATIONS ACROSS
MUCH OF THE UPPER MISSISSIPPI VALLEY
NATIONAL WEATHER SERVICE LA CROSSE WI
800 AM CDT SAT MAY 02 2015


...SOUTHEAST MINNESOTA...


CITY           SKY/WX    TMP DP  RH WIND       PRES   REMARKS
ROCHESTER      SUNNY     57  42  57 S13       29.99S
ROCHESTER/MAYO FAIR      57  41  53 S8        29.99R
WINONA         MOSUNNY   59  41  51 SW7       29.99S
AUSTIN         SUNNY     52  43  71 S6        29.98S
ALBERT LEA     SUNNY     55  43  62 S6        29.97S
DODGE CENTER   SUNNY     55  45  67 S12       29.97S
PRESTON        SUNNY     54  41  61 S7        30.01S
OWATONNA       SUNNY     55  43  62 S9        29.96S
FARIBAULT      SUNNY     54  45  71 S5        29.96S
$$

...ELSEWHERE IN MINNESOTA...


CITY           SKY/WX    TMP DP  RH WIND       PRES   REMARKS
MINNEAPOLIS    SUNNY     55  46  71 S6        29.94S
INTNL FALLS    CLOUDY    51  46  83 VRB3      29.82F
DULUTH         SUNNY     53  46  77 S6        29.91S
RED WING       SUNNY     55  45  67 CALM      29.96S
REDWOOD FALLS  SUNNY     53  45  74 S5        29.91R
MANKATO        SUNNY     52  43  71 S7        29.95S
WORTHINGTON    SUNNY     52  43  71 S10       29.94R
FAIRMONT       SUNNY     52  43  71 S10       29.94S
$$

...SOUTHWEST WISCONSIN...


CITY           SKY/WX    TMP DP  RH WIND       PRES   REMARKS
LA CROSSE      MOSUNNY   59  41  51 S9        30.01R
PRAIRIE DU CHI PTSUNNY   58  35  42 CALM      30.04S
BOSCOBEL       MOSUNNY   58  43  57 CALM      30.04S
LONE ROCK      SUNNY     61  38  42 CALM      30.05S
PLATTEVILLE    MOSUNNY   59  38  46 S8        30.06S
FORT MC COY    MOSUNNY   59  36  41 SW3       30.02S
CAMP DOUGLAS   MOSUNNY   61  36  39 S10       30.00F
VIROQUA        FAIR      58  37  44 SW10      30.03S
WIS DELLS      NOT AVBL
$$

...ELSEWHERE IN WISCONSIN...


CITY           SKY/WX    TMP DP  RH WIND       PRES   REMARKS
MILWAUKEE      PTSUNNY   59  35  40 SW8       30.07S
MADISON        PTSUNNY   59  36  42 S3        30.06R
GREEN BAY      MOSUNNY   60  44  55 SW8       30.02S
EAU CLAIRE     SUNNY     56  43  61 S5        29.97S
BLACK RVR FLS  PTSUNNY   57  40  52 S5        29.99F
MEDFORD        SUNNY     54  40  59 SW8       29.98S
WAUSAU         SUNNY     58  39  49 SW10      29.98S
WIS RAPIDS     SUNNY     60  37  42 SW8       30.02S
MARSHFIELD     SUNNY     59  39  47 SW12      29.99F
RICE LAKE      SUNNY     52  44  74 SE3       29.98S
$$

...NORTHEAST IOWA...


CITY           SKY/WX    TMP DP  RH WIND       PRES   REMARKS
DECORAH        SUNNY     57  39  51 S5        30.01S
MASON CITY     SUNNY     52  44  74 S9        29.99F
CHARLES CITY   SUNNY     55  43  62 S12       30.01S
OELWEIN        SUNNY     57  39  51 S12       30.04S
$$

...ELSEWHERE IN IOWA...


CITY           SKY/WX    TMP DP  RH WIND       PRES   REMARKS
DES MOINES     PTSUNNY   59  41  51 S10       30.01S
IOWA CITY      PTSUNNY   53  43  68 SE3       30.08R
FORT DODGE     SUNNY     55  41  58 S7        29.98S
$$

...NORTHERN ILLINOIS...


CITY           SKY/WX    TMP DP  RH WIND       PRES   REMARKS
CHICAGO-OHARE  MOSUNNY   59  38  45 VRB5      30.09S
CHICAGO-MIDWAY MOSUNNY   60  42  51 SW3       30.10S
MOLINE         SUNNY     55  43  63 CALM      30.08S
ROCKFORD       CLOUDY    55  39  54 S5        30.10S
PEORIA         MOSUNNY   56  44  64 CALM      30.12R
$$

NOTE: "FAIR" INDICATES FEW OR NO CLOUDS BELOW 12,000 FEET WITH NO
SIGNIFICANT WEATHER AND/OR OBSTRUCTIONS TO VISIBILITY. WIND
SPEEDS ARE IN MILES-PER-HOUR.



USA.gov is the U.S. government's official web portal to all federal, state and local government web resources and services.